Location: Bijele Vode
(45.2833°N, 16.2000°E)
Time: 20:26:34
(UTC+00:00)

USA 234 - Pass Details

Date: 18 September 2020
Orbit: 1102 x 1106 km, 123.0° (Epoch: 16 October)

Event Time Altitude Azimuth Distance (km) Brightness Sun altitude
Rises 18:32:51 0° 53° (NE) 3,927 5.8 -16.8°
Reaches altitude 10° 18:35:26 10° 58° (ENE) 2,966 5.2 -17.3°
Maximum altitude 18:41:48 52° 134° (SE) 1,342 3.3 -18.3°
Drops below altitude 10° 18:48:09 10° 210° (SSW) 2,956 5.6 -19.3°
Sets 18:50:42 0° 215° (SW) 3,911 6.3 -19.7°
